Location: Granada Hills
(34.2650°N, 118.5220°W)
Time: 03:25:57
(UTC-07:00)

deb Kosmos-1763 - Visible Passes

Search period start: 26 July 2017 00:00
Search period end: 05 August 2017 00:00
Orbit: 496 x 510 km, 74.0° (Epoch: 25 July)

Date Brightness Start Highest point End Pass type
(mag) Time Alt. Az. Time Alt. Az. Time Alt. Az.
26 Jul 4.0 21:48:36 10° NNW 21:52:22 73° ENE 21:52:38 69° ESE visible
27 Jul 4.2 21:29:26 10° N 21:33:09 58° ENE 21:34:03 44° SE visible
28 Jul 4.5 21:10:17 10° N 21:13:55 46° ENE 21:15:32 28° SE visible
29 Jul 4.8 20:51:10 10° N 20:54:42 37° ENE 20:57:03 18° SE visible
29 Jul 7.0 22:29:54 10° W 22:30:39 10° W 22:31:24 10° WSW visible
30 Jul 5.1 20:32:05 10° N 20:35:27 30° ENE 20:38:38 11° SE visible
30 Jul 6.9 22:09:42 10° WNW 22:11:30 13° W 22:13:18 10° SW visible
31 Jul 6.8 21:49:57 10° WNW 21:52:20 16° W 21:54:42 10° SW visible
01 Aug 6.6 21:30:22 10° NW 21:33:09 20° W 21:35:56 10° SSW visible
02 Aug 6.3 21:10:53 10° NW 21:13:57 24° W 21:17:02 10° SSW visible
03 Aug 6.0 20:51:27 10° NW 20:54:46 29° WSW 20:58:04 10° SSW visible
04 Aug 5.7 20:32:03 10° NW 20:35:33 36° WSW 20:39:03 10° S visible
